Volver al catálogo

STARLINK-30951

ActivoComunicacionesVLEO
NORAD 58439·PAYLOAD·🇺🇸 United States

Lanzado Nov 28, 2023 desde Cape Canaveral Space Force Station

Loading…

Próximos Pases (próximas 24 horas)

TLE

ActualizadoSource: CelesTrak SupGP

Época: Sep 14, 2026, 22:16 UTC

1 58439C 23183C   26257.92826389  .00058773  00000+0  21285-2 0  2571
2 58439  43.0008  53.0398 0001498 274.1315 110.3825 15.27552769    19

Sigue STARLINK-30951 en tiempo real con AllMySat

Download on the App Store